Hauptseite
METAR-TAF:

METAR-TAF

Flughäfen :

Nancy, Frankreich

Breite: 48-41N, Länge: 006-13E, Höhe: 225 m

Beobachtung

Neuester Wetterbericht von vor 26 Minuten, um 08:00 UTC
Wind 6 kt aus West/Nordwest
Temperatur 3°C
Luftfeuchtigkeit 93%
Luftdruck 1025 hPa
Sichtweite 10 km oder mehr
Geschlossene Wolkendecke in der Höhe von 900 ft

METAR: LFSN 180800Z AUTO 30006KT 9999 OVC009 03/02 Q1025

Zeit: 09:26 (08:26 UTC)


TAF: fehlend

Wetterbeobachtungen und Prognosen von mehr als 4000 Flughäfen (METAR und TAF Bericht).

Die verfügbaren Stationen werden durch gelbe und rote Markierungen auf der Karte dargestellt.

Führen Sie die Maus auf sie, um den Namen der Station zu sehen.

Darauf klicken, um die Beobachtung von Wetterbeobachtungen und Prognosen zu sehen.

Um die Karte zu ändern : klicken Sie auf den grünen Tasten mit einem schwarzen Kreuz Zum Vergrößern, auf den grünen Button mit einem Gedankenstrich zu verkleinern, oder auf die grünen Pfeile für benachbarte Karten.


METAR-TAF: